Commit Graph

  • e79bdeb5e6 member type automaticly filled on checkout bachir 2021-07-16 20:12:10 +02:00
  • 6cc3844230 added member_type on user migration bachir 2021-07-16 17:03:32 +02:00
  • 83b4c260bd created user profil customer migration bachir 2021-07-15 18:00:42 +02:00
  • 76f671a9d3 updated advanced_text_formatter bachir 2021-07-15 12:25:23 +02:00
  • c41a09cfa3 added role_delegation bachir 2021-07-15 10:30:10 +02:00
  • 906cdfda64 updated contrib modules bachir 2021-07-14 21:28:56 +02:00
  • 68ac003aeb updated contrib modules bachir 2021-07-14 21:20:31 +02:00
  • fec7e98bcb updated json_api_extras bachir 2021-07-14 20:54:34 +02:00
  • 48d32ef8d1 created full_html text format bachir 2021-07-14 19:08:50 +02:00
  • 131ad86fbc updated better_exposed_filters and all commerce modules bachir 2021-07-14 18:56:27 +02:00
  • 689a3903ad activated dgpr_tasks dgpr_fields, better popup display bachir 2021-07-14 18:05:05 +02:00
  • 785719e6d3 better footer height bachir 2021-07-14 17:14:41 +02:00
  • 8f7339b51e started rgpd integration bachir 2021-07-14 12:23:13 +02:00
  • dddd19a7b3 added password length bachir 2021-07-14 10:54:49 +02:00
  • d805ed5447 uninstalled password_policy bachir 2021-07-14 10:32:00 +02:00
  • cdee9e41a3 installed password policy, retype password contraint instructions bachir 2021-07-14 10:24:29 +02:00
  • 1f8ae09838 improved lazy loading card images bachir 2021-07-12 12:50:40 +02:00
  • 7876386208 typo fix bachir 2021-07-12 10:39:11 +02:00
  • afc14f8957 after reinstalling pwa, it seems to work better on dev env ... bachir 2021-07-09 12:36:50 +02:00
  • 7f1a7531d7 exported splitted pwa config to prod env bachir 2021-07-09 12:25:25 +02:00
  • 52ea8b825f uninstalles pwa from devel env bachir 2021-07-09 12:18:55 +02:00
  • 7fd5278e82 splitted pwa config bachir 2021-07-09 12:17:42 +02:00
  • 36350818ea dists bachir 2021-07-09 12:04:13 +02:00
  • e4dcbbccec reverted previous commit bachir 2021-07-09 11:58:56 +02:00
  • 504ce37552 uninstalled pwa on dev, config splitt pwa on stage & prod, TEST bachir 2021-07-09 11:42:28 +02:00
  • 9fa3508260 cleaned the assets/dist folder, removed code splitting for font-ubunt and materialdesignicons bachir 2021-07-09 11:35:37 +02:00
  • 3e0966f56b removed the link on checkout completion message bachir 2021-07-08 22:42:33 +02:00
  • ddb7c9c14e limited manual payement to annual licenses bachir 2021-07-08 22:32:18 +02:00
  • 510d7cb073 improved admin views commerce licenses bachir 2021-07-08 12:42:14 +02:00
  • 8b6dd73ec4 added engagement de 12 mois to product variations descriptions bachir 2021-07-08 11:43:45 +02:00
  • 84477a8d33 fixed payement confirme and or instructions texts bachir 2021-07-08 10:00:57 +02:00
  • cbdae0d062 bug fix in MaterioCommerceNominativeTerms bachir 2021-07-08 09:49:50 +02:00
  • 2fab2343bf created nominative terms in pricing checkout flow bachir 2021-07-07 17:46:34 +02:00
  • 8c8fa6c2b9 fixed home commerce buttons bachir 2021-07-07 16:14:12 +02:00
  • 9e3cffa291 customized place your order button bachir 2021-07-07 11:58:02 +02:00
  • 9e01ecb2b9 added header phrase to login/register pricing modal bachir 2021-07-07 11:21:04 +02:00
  • afa81b4a6f better pricing->loggin->checkoutflow transition bachir 2021-07-07 11:02:09 +02:00
  • 8cd3b9bfea payement instruction for check ou transfert bachir 2021-07-07 10:24:24 +02:00
  • 80427ae089 added comments to multijoueur webform bachir 2021-07-05 14:45:56 +02:00
  • e8a8c43a29 multijoueur webform confirmation page bachir 2021-07-05 12:31:11 +02:00
  • 2f41f2cf85 some fix for multijouer webform bachir 2021-07-05 12:16:11 +02:00
  • 250e454424 translations for multijouer webform bachir 2021-07-05 12:13:45 +02:00
  • 19f79da87e some fix for multijouer webform bachir 2021-07-05 12:08:32 +02:00
  • 89c450e103 added email notification tomultijoueur submission bachir 2021-07-01 16:58:16 +02:00
  • 6f3d2abe0f missed editors menu subbmissions link bachir 2021-07-01 16:47:42 +02:00
  • 88b0ae5acd gave access to admin to multijoueur webform submissions bachir 2021-07-01 16:44:27 +02:00
  • 284b9c51bc fixed multijoueur webform path alias bachir 2021-07-01 16:36:09 +02:00
  • 2d704293a7 styled multijoueur webform bachir 2021-07-01 16:33:15 +02:00
  • 382158ca6c multijoueur webform default country_code:FR bachir 2021-07-01 12:39:48 +02:00
  • e4a5ef2e6b no vuejs for multijoueur webform bachir 2021-07-01 12:36:13 +02:00
  • 5da1b2be5c created multijoueur webform bachir 2021-07-01 12:32:27 +02:00
  • 5c90a44da4 admin can manage orders bachir 2021-06-29 17:16:26 +02:00
  • 90662ad8fe asynch payement don't activate license right after checkout bachir 2021-06-29 16:47:26 +02:00
  • 1ac8e08daa added terms of services bachir 2021-06-25 14:00:13 +02:00
  • baf617e8ed update drupal/inline_entity_form drupal/entity_clone bachir 2021-06-24 23:02:26 +02:00
  • d1f979e4f4 update drupal/state_machine drupal/pagerer drupal/menu_block drupal/jquery_ui_datepicker drupal/interval drupal/extlink drupal/error_log drupal/entity_browser drupal/editor_advanced_link drupal/context drupal/autocomplete_deluxe drupal/better_exposed_filters bachir 2021-06-24 22:51:28 +02:00
  • d2c9373f2b updated restui jsonapi_extras imagemagick bachir 2021-06-24 22:44:34 +02:00
  • dfd2fad69f updated drupal/admin_toolbar bachir 2021-06-24 22:38:56 +02:00
  • d9d967df0e updated drupal/ctools bachir 2021-06-24 22:33:07 +02:00
  • cee7c5f78e updated drupal/graphql bachir 2021-06-24 22:31:16 +02:00
  • 6498e71cdb updated drupal/search_api_solr bachir 2021-06-24 22:27:32 +02:00
  • 98d9ece6e7 fixed synonyms update: need to reconfigure the all synonyms bachir 2021-06-24 22:22:47 +02:00
  • e3dfe39d1d updated drupal/synonyms:^2.0.0-beta2, and others bachir 2021-06-24 21:56:09 +02:00
  • 03a765509e updated drupal/views_conditional bachir 2021-06-24 21:48:30 +02:00
  • e29f8228f0 updated drupal/workflow bachir 2021-06-24 21:44:33 +02:00
  • f8f22efa69 updated drupal/advancedqueue, installed druapl/webform, now using composer 2 bachir 2021-06-24 21:37:05 +02:00
  • f9ede630e5 updated composer plugin wikimedia/composer-merge-plugin bachir 2021-06-24 21:24:26 +02:00
  • 82ac176a50 better complete checkout message, bug fix bachir 2021-06-21 16:55:11 +02:00
  • a250ede8c8 better complete checkout message bachir 2021-06-21 16:47:53 +02:00
  • 580d6f9059 added manual payement bachir 2021-06-21 15:46:10 +02:00
  • 6eb07263d3 commerce: collect vat number on billing info bachir 2021-06-16 19:52:57 +02:00
  • e4bc529e2f fixed add to cart text translation bachir 2021-06-11 11:53:31 +02:00
  • 4e285cbb4c fixed ask for a quote translation bachir 2021-06-11 11:47:39 +02:00
  • b27f1afa45 added ask for a quote bachir 2021-06-11 11:41:15 +02:00
  • 4fe9f08b67 changed 'add to cart' button text on pricing page bachir 2021-06-11 11:12:13 +02:00
  • b28b8cedde changed 'add to cart' button text bachir 2021-06-11 10:31:22 +02:00
  • 0371469138 better right for products for admin bachir 2021-06-10 23:49:39 +02:00
  • 70eb4521c7 better views product amdin page bachir 2021-06-10 23:43:59 +02:00
  • 8688d403c9 admin can edit products and variations bachir 2021-06-10 23:38:48 +02:00
  • fad036cb21 updated core to 8.9.16 bachir 2021-06-10 21:29:26 +02:00
  • 6722964893 fixed home showroomcarroussel bug bachir 2021-06-10 20:20:04 +02:00
  • 044346c016 better pricing page display bachir 2021-06-10 20:02:26 +02:00
  • 81eb01d101 home sections labels link made active bachir 2021-06-10 19:45:30 +02:00
  • 27ece7a12c home article cards links made active bachir 2021-06-10 17:42:55 +02:00
  • 352223500f add to cart links for products in home bachir 2021-06-09 13:06:52 +02:00
  • d9d2180f94 fixed article prev next bachir 2021-06-08 21:35:02 +02:00
  • 8f8467ae97 warning member bachir 2021-06-08 21:20:59 +02:00
  • c22383e99c views.view.pricing_product.yml bachir 2021-06-08 14:53:33 +02:00
  • efd7bdaa51 webpack vuejs prod/dev mode final bachir 2021-06-08 14:26:49 +02:00
  • f8d82b8c8f webpack vuejs prod mode bachir 2021-06-08 14:15:26 +02:00
  • b35218ec81 webpack vuejs prod mode bachir 2021-06-08 14:10:21 +02:00
  • 94bc2dab06 translated new folder bachir 2021-06-08 12:06:41 +02:00
  • 1bdacc98ff fixed mailto: links on home bachir 2021-06-08 11:48:43 +02:00
  • 10083d75c5 home page blabla links translatable bachir 2021-06-08 11:15:47 +02:00
  • 4c0e683e07 member access login form block translated bachir 2021-06-08 11:08:11 +02:00
  • 585f4e8a9f improved simplenews form display bachir 2021-06-08 10:48:14 +02:00
  • 30a75e09db updated simplenews from 1-beta to 2-beta, translated subscription form bachir 2021-06-08 10:41:18 +02:00
  • 3105ce1e81 fixed product lits bad variations language bachir 2021-06-02 12:50:42 +02:00
  • 14169ab24a fixed gql products language selection bachir 2021-06-02 12:40:46 +02:00
  • 11d781c646 fixed translated products view duplicates bachir 2021-06-02 12:30:05 +02:00